Location: *
(44.1392°N, 4.8079°E)
Time: 08:11:26
(UTC+00:00)

BREEZE-M R/B - Pass Details

Date: 21 June 2021
Orbit: 579 x 26589 km, 48.9° (Epoch: 31 July)

Event Time Altitude Azimuth Distance (km) Brightness Sun altitude
Exits shadow 00:39:53 30° 122° (ESE) 1,066 3.6 -21.2°
Drops below altitude 10° 00:42:50 10° 76° (ENE) 2,173 5.7 -21.0°
Sets 00:45:55 0° 65° (ENE) 3,715 7.1 -20.9°
